GW2804 Weather Reports


Display with metric or nautical units.
time (UTC)temp
F
wind
direction
speed
MPH
gust
MPH
rain 1hr
in
rain 24hr
in
rain mn
in
humidity
%
barometer
mb
20260504081601 53 178 2.0 5.0 0.00 0.00 0.00 64 1005.2
20260504050112 57 220 0.0 3.0 0.00 0.00 0.00 59 1006.8
20260504044552 57 217 1.0 4.0 0.00 0.00 0.00 58 1007.1
20260504043106 58 207 2.0 5.0 0.00 0.00 0.00 57 1007.1
20260504041550 59 205 2.0 5.0 0.00 0.00 0.00 56 1007.3
20260504040058 59 196 2.0 7.0 0.00 0.00 0.00 55 1007.4
20260504034552 60 209 2.0 5.0 0.00 0.00 0.00 54 1007.6
20260504033055 60 192 2.0 5.0 0.00 0.00 0.00 54 1007.7
20260504031558 60 201 2.0 6.0 0.00 0.00 0.00 53 1007.7
20260504030054 61 200 2.0 5.0 0.00 0.00 0.00 52 1007.8
20260504024550 61 198 2.0 5.0 0.00 0.00 0.00 51 1007.6
20260504023052 62 188 2.0 5.0 0.00 0.00 0.00 48 1007.5
20260504021550 63 202 3.0 6.0 0.00 0.00 0.00 48 1007.5
20260504020047 63 223 2.0 4.0 0.00 0.00 0.00 48 1007.4
20260504014558 64 234 2.0 6.0 0.00 0.00 0.00 47 1007.4
20260504013100 65 221 2.0 4.0 0.00 0.00 0.00 46 1007.4
20260504011549 66 227 2.0 5.0 0.00 0.00 0.00 44 1007.4
20260504010110 67 214 2.0 7.0 0.00 0.00 0.00 42 1007.4
20260504004553 69 193 4.0 8.0 0.00 0.00 0.00 39 1007.3
20260504003050 69 240 3.0 9.0 0.00 0.00 0.00 37 1007.4
20260504001600 70 224 5.0 10.0 0.00 0.00 0.00 34 1007.3
20260504000049 71 231 5.0 11.0 0.00 0.00 0.00 34 1007.3
20260503234551 71 218 6.0 11.0 0.00 0.00 0.00 35 1007.3
20260503233102 71 252 6.0 11.0 0.00 0.00 0.00 35 1007.3
20260503231550 72 243 8.0 15.0 0.00 0.00 0.00 34 1007.3
20260503230051 72 267 8.0 15.0 0.00 0.00 0.00 33 1007.2
20260503224547 73 223 8.0 17.0 0.00 0.00 0.00 33 1007.3
20260503223050 73 225 8.0 15.0 0.00 0.00 0.00 33 1007.3
20260503221557 73 205 8.0 21.0 0.00 0.00 0.00 33 1007.3
20260503220103 73 239 10.0 20.0 0.00 0.00 0.00 33 1007.4
20260503214546 73 254 8.0 18.0 0.00 0.00 0.00 34 1007.7
20260503213049 72 219 12.0 21.0 0.00 0.00 0.00 36 1007.8
20260503211547 72 254 8.0 15.0 0.00 0.00 0.00 37 1007.9
20260503210056 70 200 12.0 22.0 0.00 0.00 0.00 39 1008.0
20260503204602 70 262 8.0 15.0 0.00 0.00 0.00 43 1008.2
20260503203100 69 252 4.0 13.0 0.00 0.00 0.00 44 1008.5
20260503201549 67 240 7.0 15.0 0.00 0.00 0.00 45 1008.7
20260503200053 67 178 7.0 16.0 0.00 0.00 0.00 47 1008.7
20260503194609 67 251 9.0 15.0 0.00 0.00 0.00 46 1009.0
20260503193051 66 211 5.0 19.0 0.00 0.00 0.00 48 1008.8
20260503191601 66 257 8.0 17.0 0.00 0.00 0.00 46 1008.8
20260503190059 65 234 8.0 18.0 0.00 0.00 0.00 46 1008.8
20260503184556 64 213 8.0 16.0 0.00 0.00 0.00 46 1007.5
20260503183105 66 232 8.0 18.0 0.00 0.00 0.00 45 1009.2
20260503181552 66 218 8.0 17.0 0.00 0.00 0.00 45 1009.3
20260503180105 66 221 11.0 18.0 0.00 0.00 0.00 44 1009.7
20260503174551 66 130 8.0 23.0 0.00 0.00 0.00 44 1009.2
20260503173139 64 213 11.0 21.0 0.00 0.00 0.00 45 1009.7
20260503171552 64 251 14.0 26.0 0.00 0.00 0.00 44 1009.7